Temperature
20 20 20 20 20 21 23 24 25 24 24 24 24 24 23 22 21 19 18 18 18 18 18 18 18 18 18 18 18 18 18 18 18 18 17 17 17 17 17 17 17 17 17 17 18 18 18 18 18
20 20 20 20 21 22 23 24 24 24 24 24 24 23 22 21 20 18 18 18 18 17 18 18 18 18 18 18 18 18 18 17 17 17 17 17 17 17 17 17 17 17 17 17 17 17 17 17 17
20 20 21 22 22 23 23 24 24 24 24 24 24 22 21 20 19 18 18 18 18 17 18 18 18 18 18 18 18 17 17 17 17 17 17 17 17 17 17 17 17 17 17 17 17 17 17 17 17
20 21 22 22 23 24 24 24 25 25 24 24 23 22 20 19 19 18 18 18 18 17 18 18 18 18 17 17 17 17 17 17 17 17 17 17 17 16 16 16 16 16 16 17 17 17 17 17 17
21 21 22 23 24 25 25 25 25 24 24 23 22 20 19 18 18 18 18 18 18 17 17 17 17 17 17 17 17 17 17 17 17 17 17 16 16 16 16 16 16 16 16 16 16 17 17 17 17
21 22 22 23 23 25 25 25 25 24 24 23 22 20 18 18 18 18 18 18 18 17 17 17 17 17 17 17 17 17 17 17 17 17 16 16 16 16 16 16 16 16 16 16 16 16 17 17 17
21 22 22 23 23 23 25 25 24 24 23 23 22 20 18 18 18 18 18 18 18 18 18 17 17 17 17 17 17 17 17 17 17 16 16 16 16 16 16 16 16 16 16 16 16 16 16 17 17
22 22 22 23 23 23 25 25 24 24 23 23 22 20 19 18 18 18 18 18 18 18 18 17 17 17 17 17 17 17 17 17 17 16 16 16 16 16 16 16 16 16 16 16 16 16 16 17 17
22 22 21 22 22 23 24 24 24 23 23 22 21 20 19 19 19 19 19 18 18 18 18 18 17 17 17 17 17 17 17 17 17 17 16 16 16 16 16 16 16 16 16 16 16 16 16 16 17
23 21 22 23 23 23 24 24 24 23 22 21 20 19 19 19 19 19 19 19 18 18 18 18 18 17 17 17 17 17 17 17 17 17 17 17 16 16 16 16 16 16 16 16 16 16 16 16 17
23 22 22 23 24 24 24 24 24 23 22 21 20 19 19 19 19 19 19 19 19 18 18 18 18 18 18 17 17 17 17 17 17 17 17 16 16 16 16 16 16 16 16 16 16 16 16 17 17
23 23 23 23 24 24 24 23 23 22 22 21 20 20 19 19 19 19 19 19 19 18 18 18 18 18 18 18 18 17 17 17 17 17 17 16 16 16 16 16 16 16 16 16 16 16 16 17 17
23 23 23 23 23 23 23 23 22 22 21 21 20 20 20 20 20 19 19 19 19 18 18 18 18 18 18 18 18 17 17 17 17 16 17 16 16 16 16 16 16 16 16 16 16 16 16 16 16
23 23 23 23 23 23 23 23 22 22 21 21 21 20 20 20 20 20 19 19 19 19 18 18 18 18 18 18 18 17 17 17 16 16 17 16 16 16 16 16 16 16 16 16 16 16 16 16 16
23 23 23 23 23 23 23 22 22 22 21 21 21 21 20 20 20 20 20 19 19 19 19 18 18 18 18 18 17 17 17 17 16 16 16 16 16 16 16 15 15 15 15 15 16 16 16 16 16
23 22 21 22 23 23 23 21 22 22 22 21 21 21 20 20 20 20 20 19 19 19 19 18 18 18 18 17 17 17 17 16 16 16 16 16 16 15 15 15 15 15 15 15 15 16 15 16 16
22 21 21 22 23 24 23 21 22 22 22 21 21 20 20 20 20 19 19 19 19 19 19 18 18 18 17 17 17 17 17 16 16 16 16 16 15 15 15 15 15 15 15 15 15 15 15 15 16
21 22 22 22 23 23 22 22 22 22 22 21 21 21 20 20 20 20 19 19 19 19 19 18 18 18 17 17 17 17 16 16 16 15 15 15 15 15 15 15 15 15 15 15 15 15 15 15 15
22 22 22 22 23 23 22 22 22 22 22 22 21 21 21 20 20 20 19 19 19 19 19 18 18 17 17 17 17 17 16 16 16 15 15 15 15 15 15 15 15 15 15 15 15 15 15 15 15
23 22 22 22 23 23 22 22 22 22 22 22 22 21 21 20 20 19 19 19 19 19 18 18 18 17 17 17 17 16 16 16 16 15 15 15 15 15 15 15 15 15 15 15 15 15 15 15 15
23 23 22 22 23 23 22 22 22 22 22 22 22 22 21 21 20 20 19 19 19 19 18 18 18 17 17 17 17 16 16 16 16 15 15 15 15 15 15 15 15 15 14 15 15 15 15 15 15
23 23 23 23 22 21 22 20 21 22 22 22 22 22 21 21 20 20 19 19 19 18 18 18 18 17 17 17 17 17 16 16 16 15 15 15 15 15 15 15 15 15 15 15 14 14 15 15 15
23 24 23 23 22 22 22 21 22 22 21 22 22 22 21 21 20 19 19 19 18 18 18 18 18 17 17 17 17 17 16 16 16 16 15 15 15 15 15 15 15 15 15 15 14 14 14 14 15
24 24 23 23 22 21 22 22 21 22 23 22 22 22 21 21 20 19 19 19 18 18 18 18 18 17 17 17 17 17 16 16 16 16 16 15 15 15 15 15 15 15 15 15 14 14 14 14 14
24 22 21 21 20 21 23 23 22 24 24 24 23 22 21 20 20 19 19 18 18 18 18 18 17 17 17 17 17 17 17 16 16 16 16 15 15 15 15 15 15 15 15 15 14 14 14 14 14
23 22 20 20 21 22 23 23 23 25 24 24 23 22 21 20 20 19 19 18 18 18 18 18 17 17 17 17 17 17 17 16 16 16 16 16 15 15 15 15 15 15 15 14 14 14 14 14 14
22 22 23 22 22 22 23 23 23 24 24 23 23 22 21 20 20 19 19 18 18 18 18 18 17 17 17 17 17 17 16 16 16 16 16 16 15 15 15 15 15 15 15 14 14 14 14 14 14
24 24 23 22 21 21 22 23 22 22 23 23 23 22 21 20 20 19 19 18 18 18 18 17 17 17 17 17 17 17 16 16 16 16 16 15 15 15 15 15 15 15 14 14 14 14 14 14 14
24 24 24 23 23 21 21 22 25 23 23 23 23 22 21 20 20 19 18 18 18 18 18 17 17 17 17 17 17 16 16 16 16 15 15 15 15 15 15 14 14 14 14 14 14 14 14 14 14
24 24 24 22 22 23 22 22 25 25 24 23 23 22 21 20 20 19 18 18 18 17 17 17 17 17 17 16 16 16 16 16 15 15 15 15 15 15 14 14 14 14 14 14 14 14 14 14 14
Wind_Speed
10 10 6 2 3 2 2 4 7 7 7 9 10 10 11 11 8 8 4 8 12 12 14 14 14 14 14 14 14 14 14 14 13 13 13 12 11 11 11 11 10 10 10 10 10 9 9 8 8
10 8 4 3 3 1 3 6 8 9 7 6 9 12 12 11 11 8 5 9 13 13 14 14 14 15 15 15 15 14 14 14 14 13 13 12 11 11 11 10 10 10 9 9 9 9 8 8 7
10 7 4 3 2 1 5 7 8 8 7 7 8 11 8 7 8 6 7 11 14 14 15 15 16 16 15 15 15 14 14 14 14 13 12 12 11 10 10 9 9 9 9 9 9 8 8 8 7
5 3 4 2 2 5 7 7 7 8 8 9 9 9 8 8 6 8 11 13 15 14 16 16 16 16 16 15 14 14 14 13 13 12 12 11 11 10 9 9 9 9 8 8 8 8 7 7 7
3 3 3 1 2 6 8 7 8 8 8 11 12 10 9 10 11 11 11 12 14 13 15 16 16 16 15 14 14 14 13 12 11 11 10 10 9 8 8 8 8 8 8 8 7 7 6 6 6
3 3 3 1 4 6 7 8 9 10 10 11 12 11 7 8 11 10 10 11 12 13 14 15 16 15 15 14 13 12 12 11 9 9 8 7 6 6 6 6 7 7 7 7 6 6 5 5 4
3 4 3 2 4 5 7 8 9 9 8 8 8 9 8 8 7 9 10 10 11 12 12 13 14 14 14 13 12 11 9 8 7 5 4 3 4 4 4 5 5 6 6 5 5 4 3 3 3
3 3 1 1 4 5 6 8 8 9 8 7 7 8 9 10 8 8 9 10 10 10 10 11 12 13 12 11 11 10 8 7 5 4 3 3 3 3 4 4 5 4 4 3 3 2 3 3 4
3 1 1 2 3 5 6 8 9 8 10 11 11 13 13 13 10 9 9 9 8 9 8 8 9 10 11 10 10 10 8 8 7 6 6 5 5 6 5 6 4 2 1 1 2 4 5 6 6
1 1 2 3 4 4 5 7 6 7 11 13 14 14 14 12 10 9 9 9 8 7 7 7 7 6 6 6 8 7 7 6 5 3 3 1 2 4 5 6 4 3 3 3 5 6 7 8 7
1 1 2 4 4 5 5 6 6 8 8 11 14 14 12 11 9 9 8 8 8 8 6 6 6 5 5 4 4 2 4 4 5 6 6 6 7 3 4 3 4 4 4 3 4 6 6 5 2
2 2 2 3 4 4 5 6 8 9 9 12 14 13 11 11 9 9 9 9 8 7 5 4 4 4 5 4 2 2 3 4 5 6 7 6 3 3 3 3 3 2 2 2 3 3 3 4 3
4 3 3 4 4 5 7 9 9 10 11 13 13 12 10 10 9 9 9 9 8 7 5 4 3 4 4 3 1 5 4 4 6 5 5 6 2 2 3 3 4 4 5 3 3 3 4 4 6
4 5 4 4 5 6 8 7 7 9 11 12 12 10 10 9 10 9 9 8 8 7 6 4 4 4 4 4 3 3 4 5 6 4 5 7 6 4 3 3 3 3 4 4 3 3 3 2 3
4 5 4 2 4 5 7 6 7 10 11 11 11 10 9 9 8 8 8 7 7 7 6 4 4 5 6 5 4 4 5 7 5 5 8 9 9 7 4 3 3 4 6 6 5 4 4 3 3
5 3 3 3 4 4 4 5 8 9 10 10 10 9 8 7 9 7 7 7 6 6 7 5 5 6 6 5 3 3 6 5 5 7 9 10 10 9 6 4 3 6 7 4 3 3 3 4 3
4 4 4 4 5 4 4 6 8 8 9 9 9 9 8 8 8 7 7 7 5 6 7 6 6 6 6 4 3 4 5 5 6 9 9 10 10 9 7 3 4 8 5 4 5 5 4 3 3
4 5 5 5 5 5 5 6 9 9 10 10 9 9 9 9 8 7 7 6 6 6 6 7 6 6 5 3 4 3 4 4 6 6 7 8 9 10 7 4 6 6 4 5 4 4 4 3 3
3 3 4 3 4 5 6 8 8 8 9 9 9 9 9 10 9 8 7 6 5 5 6 7 6 6 5 3 3 3 3 3 4 5 8 8 9 9 6 4 4 4 4 5 5 4 4 4 3
4 3 4 5 5 4 5 7 9 8 9 8 9 10 11 10 10 8 7 6 6 6 5 6 7 6 5 3 3 3 2 3 4 3 6 8 8 8 7 4 3 4 3 5 5 4 4 4 4
4 4 4 5 5 4 4 4 8 9 8 8 7 8 10 11 11 10 8 7 6 6 5 6 6 6 5 3 3 3 3 2 3 3 3 4 5 6 7 5 4 3 3 3 4 4 4 4 4
2 2 4 6 5 3 5 3 7 10 9 9 8 7 9 9 10 9 8 7 6 6 6 5 6 6 4 4 4 3 3 2 3 3 2 2 4 5 5 4 4 3 3 3 3 4 3 3 3
2 2 4 5 4 4 4 3 5 10 11 11 11 10 9 10 11 10 8 7 7 6 5 5 5 4 4 5 4 2 3 3 3 3 2 3 3 3 3 3 3 4 3 4 4 4 4 3 3
3 4 3 3 3 4 7 6 3 9 13 13 12 12 10 11 10 10 8 7 6 6 5 5 5 5 4 4 5 4 5 4 4 3 2 2 2 2 3 4 4 3 3 3 3 3 3 3 4
5 3 2 3 3 3 6 5 3 7 10 12 13 12 11 11 11 10 9 7 7 6 5 5 5 4 3 3 4 5 4 3 4 2 2 2 2 3 4 4 3 3 3 3 3 3 3 3 3
6 5 3 2 2 1 4 3 3 7 8 10 11 12 11 11 10 10 10 8 8 7 6 5 6 5 4 2 4 5 4 3 3 2 2 2 2 2 3 3 4 5 5 5 4 3 4 4 4
5 6 6 3 3 1 3 5 7 8 9 10 11 12 12 12 12 11 10 9 8 7 6 6 6 5 4 3 4 4 4 4 3 2 2 2 2 2 3 3 3 4 4 4 4 3 4 3 3
6 6 4 3 1 0 2 4 6 9 10 10 11 13 12 12 12 11 10 9 7 6 6 7 6 5 4 4 4 4 4 4 2 2 3 3 3 3 3 3 4 4 3 3 3 3 4 4 3
7 7 4 3 2 1 0 1 3 10 10 11 11 11 12 12 11 10 9 9 8 7 6 6 6 5 4 4 4 4 4 3 2 2 2 2 2 2 2 3 3 3 4 3 4 4 4 4 4
6 7 5 3 3 3 1 1 1 8 10 10 11 12 12 12 12 11 10 9 8 7 7 6 5 5 5 4 4 4 4 3 3 2 2 2 2 3 3 3 3 4 4 4 4 4 4 4 4
Wind_Direction
285 268 262 269 257 238 70 76 79 71 67 59 59 66 67 54 62 93 118 104 104 104 102 98 97 95 94 92 90 88 87 85 83 82 83 81 78 75 72 69 65 62 60 55 52 48 46 43 41
286 286 275 242 259 206 81 85 80 78 85 85 71 71 71 65 76 96 107 102 104 102 99 98 99 96 94 92 90 88 87 85 82 81 80 78 75 72 70 67 63 60 57 54 49 45 43 41 37
275 274 269 253 277 61 96 89 90 90 83 78 74 64 57 70 74 97 115 108 103 98 98 101 99 98 97 95 94 92 89 86 82 78 77 75 72 69 66 62 59 56 54 52 46 43 40 38 34
278 270 246 248 32 66 95 105 109 98 84 79 84 73 66 59 85 110 112 106 103 102 102 103 101 99 96 95 94 93 90 87 83 79 75 72 68 64 60 57 55 52 49 49 46 42 40 36 30
255 263 252 222 94 93 93 97 96 86 79 82 87 91 83 79 98 107 105 105 108 108 108 108 105 101 98 96 94 92 89 84 80 77 73 68 66 63 57 55 52 48 46 47 46 43 40 36 26
270 260 257 181 108 89 82 83 87 87 87 92 101 99 92 104 107 109 109 109 109 112 113 115 112 109 105 101 96 94 91 86 82 79 75 74 73 70 63 58 49 45 41 43 44 40 34 27 15
280 283 272 132 109 91 88 80 82 87 84 79 101 102 113 113 117 119 117 114 115 117 120 123 125 120 115 112 110 107 105 102 99 97 102 104 102 99 86 68 53 47 39 37 35 30 15 358 340
288 293 290 133 113 89 88 85 83 88 81 81 93 110 127 136 136 125 119 116 118 121 126 129 129 130 130 130 131 130 133 135 140 156 186 191 181 157 129 103 73 52 33 22 8 347 319 303 292
287 295 26 65 82 97 99 96 85 85 84 72 77 101 122 136 140 134 124 119 117 116 121 126 130 131 138 145 145 158 165 177 181 197 217 223 211 169 147 109 110 87 10 322 297 291 284 277 269
249 9 50 61 83 103 95 97 105 103 94 91 92 103 124 138 139 132 127 123 120 119 119 119 124 128 128 118 147 171 159 167 182 166 130 250 62 75 106 136 163 197 234 255 262 269 274 264 254
95 76 43 63 80 93 97 95 96 104 102 114 120 125 133 139 136 130 123 117 112 110 104 115 123 124 122 119 125 131 117 113 62 36 71 46 30 35 96 156 185 215 230 256 258 255 262 259 250
112 86 75 73 72 80 86 86 84 82 101 116 122 131 138 141 135 130 122 118 114 108 105 101 107 115 109 95 101 79 71 70 59 29 41 62 30 14 31 45 17 15 21 5 337 310 328 345 356
137 123 92 85 86 96 96 93 90 97 108 118 126 134 139 138 132 124 126 127 123 121 116 107 101 99 107 98 70 82 63 53 68 28 36 57 39 25 26 45 24 15 23 8 347 357 9 10 5
127 118 108 99 107 108 107 104 104 114 121 126 130 133 131 127 129 132 132 124 116 115 115 105 103 94 89 86 80 83 99 86 66 18 38 56 48 44 24 38 18 12 16 2 4 16 9 11 18
135 131 121 131 143 137 121 110 125 133 136 134 132 126 122 123 122 120 121 121 122 122 115 104 97 89 81 71 56 73 72 76 65 31 30 51 49 42 31 21 12 10 19 17 7 16 6 7 25
174 179 163 168 165 167 155 131 134 145 142 134 129 125 123 119 117 115 117 119 121 118 115 109 91 89 82 77 49 61 66 62 65 49 30 38 47 45 32 10 8 19 18 10 359 20 16 8 10
203 197 177 169 175 173 151 140 151 153 140 135 137 140 139 129 120 125 120 118 120 116 117 109 87 88 85 92 82 57 75 63 62 53 37 28 34 41 39 14 16 25 17 4 9 24 15 6 355
203 194 185 173 171 171 151 148 155 156 152 149 153 150 148 141 138 135 125 124 122 121 118 108 101 94 100 88 83 66 58 64 70 65 49 31 29 33 34 26 25 26 17 8 13 19 12 3 351
235 206 173 154 161 163 159 156 160 161 162 161 164 158 154 145 142 134 134 135 131 122 111 114 113 95 81 63 71 75 71 68 67 62 50 37 36 22 26 27 22 23 24 13 14 15 11 357 358
209 183 146 147 165 171 164 167 164 169 177 175 174 163 156 145 145 139 140 140 128 122 119 121 107 96 90 81 90 92 84 86 87 66 56 44 38 22 21 30 24 23 20 17 12 21 10 355 8
204 191 181 177 171 178 181 192 176 175 181 180 177 161 150 154 153 146 144 135 127 124 114 111 108 107 110 111 87 84 69 55 87 90 71 54 45 33 22 21 18 15 33 24 4 23 23 2 355
213 180 179 182 181 202 209 209 190 182 184 183 176 163 152 151 143 139 137 132 130 123 125 129 120 118 121 111 98 109 110 93 83 86 94 92 63 55 24 13 14 22 33 24 8 37 11 13 357
173 177 199 204 214 231 221 229 197 176 184 183 172 167 161 152 145 142 139 134 129 125 120 115 112 110 102 101 103 82 79 88 87 82 74 79 64 53 29 10 27 30 27 26 20 26 24 22 14
180 201 217 220 235 247 228 215 198 186 186 176 172 168 163 152 146 143 138 132 128 120 109 104 101 90 93 116 118 98 82 76 81 67 51 64 76 32 33 22 33 43 35 29 8 21 34 32 15
197 211 220 204 205 230 211 200 191 166 170 167 165 162 157 149 148 146 144 144 136 135 133 123 116 117 125 121 118 113 105 91 87 83 72 50 61 39 25 25 26 32 25 32 12 21 19 32 17
209 213 234 248 210 168 179 184 135 130 143 150 151 151 150 149 150 149 150 148 144 143 142 140 133 126 118 107 102 109 109 87 85 55 58 63 71 63 33 25 42 35 26 26 24 22 13 18 16
216 225 236 268 284 242 184 139 123 126 137 145 148 150 153 155 153 154 153 149 148 148 147 140 132 130 134 125 98 84 88 74 79 64 49 53 63 65 48 27 50 50 36 25 24 23 9 14 22
245 253 249 232 266 284 193 168 161 157 159 158 157 156 157 154 153 150 147 143 142 143 143 134 136 136 132 119 113 107 100 92 68 58 61 43 47 55 52 37 38 47 32 25 30 22 7 11 13
218 236 247 259 252 248 359 47 124 156 160 160 159 154 153 153 149 145 145 143 142 141 136 133 137 132 126 118 110 113 108 98 78 55 68 61 57 60 50 47 44 44 29 22 28 13 8 4 356
243 240 239 252 274 256 187 99 87 142 147 152 154 151 152 151 149 147 145 143 143 148 146 144 143 134 126 115 104 98 96 90 73 55 50 44 49 47 49 43 38 36 32 22 14 1 7 1 357
Height
1498 1498 1498 1500 1501 1501 1499 1494 1490 1492 1494 1496 1496 1498 1502 1506 1512 1523 1524 1522 1523 1523 1524 1525 1526 1527 1528 1529 1530 1531 1531 1532 1533 1533 1534 1534 1535 1535 1536 1536 1536 1537 1537 1537 1537 1537 1537 1537 1537
1498 1499 1500 1500 1501 1505 1502 1494 1494 1495 1496 1497 1499 1501 1505 1511 1516 1520 1522 1524 1524 1525 1526 1526 1527 1528 1529 1530 1531 1532 1533 1534 1534 1534 1535 1535 1536 1536 1537 1537 1537 1537 1537 1537 1537 1537 1537 1537 1538
1498 1499 1501 1498 1498 1501 1502 1495 1495 1496 1497 1498 1501 1505 1510 1516 1519 1521 1524 1525 1526 1526 1527 1528 1529 1530 1531 1532 1533 1533 1534 1535 1535 1536 1536 1536 1537 1537 1537 1538 1538 1538 1538 1538 1538 1538 1538 1538 1538
1500 1501 1499 1498 1499 1494 1493 1494 1494 1497 1498 1500 1503 1509 1516 1519 1521 1523 1525 1527 1527 1528 1529 1530 1531 1532 1533 1533 1534 1535 1536 1536 1537 1537 1537 1538 1538 1538 1538 1538 1538 1538 1538 1538 1538 1538 1538 1538 1538
1501 1500 1499 1499 1497 1492 1491 1493 1495 1497 1499 1502 1506 1514 1520 1522 1523 1525 1527 1528 1529 1530 1531 1532 1533 1534 1535 1535 1536 1537 1537 1537 1538 1538 1538 1538 1539 1539 1539 1539 1538 1538 1538 1538 1538 1538 1538 1538 1538
1501 1498 1502 1503 1499 1493 1493 1494 1497 1499 1502 1505 1509 1515 1522 1525 1525 1527 1528 1530 1531 1532 1533 1534 1535 1536 1536 1537 1538 1538 1538 1539 1539 1539 1540 1540 1540 1540 1539 1539 1539 1539 1539 1538 1538 1538 1538 1539 1539
1502 1499 1501 1500 1500 1498 1496 1497 1499 1502 1504 1507 1510 1516 1523 1526 1527 1529 1530 1532 1533 1534 1535 1536 1537 1537 1538 1539 1539 1540 1540 1540 1540 1541 1541 1541 1541 1541 1540 1540 1540 1539 1539 1539 1539 1539 1539 1539 1539
1501 1500 1500 1500 1501 1502 1498 1499 1502 1504 1507 1510 1511 1516 1523 1527 1529 1530 1532 1533 1535 1536 1537 1538 1539 1539 1540 1540 1541 1541 1542 1542 1542 1542 1542 1542 1542 1542 1541 1541 1540 1540 1539 1539 1539 1539 1539 1540 1540
1501 1503 1506 1503 1502 1502 1499 1501 1505 1507 1509 1511 1513 1517 1522 1526 1529 1532 1534 1535 1537 1539 1540 1541 1541 1542 1542 1542 1543 1543 1543 1543 1543 1543 1544 1544 1543 1543 1543 1543 1542 1541 1540 1540 1540 1540 1540 1540 1540
1501 1506 1505 1500 1500 1501 1501 1503 1505 1508 1511 1515 1518 1522 1525 1527 1530 1532 1535 1536 1538 1540 1542 1543 1543 1544 1544 1545 1545 1545 1545 1545 1545 1545 1545 1545 1546 1545 1545 1544 1543 1542 1542 1541 1541 1541 1541 1541 1541
1501 1504 1503 1501 1502 1502 1503 1505 1507 1509 1514 1517 1520 1524 1527 1529 1531 1534 1536 1538 1540 1541 1543 1544 1545 1546 1546 1546 1546 1547 1547 1547 1547 1547 1547 1546 1546 1546 1545 1545 1544 1543 1543 1542 1542 1542 1541 1542 1542
1503 1503 1503 1503 1504 1505 1506 1507 1509 1512 1516 1519 1522 1525 1528 1530 1533 1535 1537 1539 1541 1542 1544 1545 1546 1547 1547 1547 1548 1548 1548 1548 1548 1548 1548 1547 1547 1547 1546 1546 1545 1545 1544 1543 1543 1543 1542 1542 1542
1504 1505 1505 1506 1506 1507 1508 1510 1513 1516 1519 1521 1524 1527 1529 1531 1534 1536 1538 1540 1542 1543 1545 1546 1547 1548 1548 1549 1549 1549 1549 1549 1549 1549 1549 1548 1548 1547 1547 1546 1546 1545 1545 1544 1544 1543 1543 1543 1542
1504 1505 1506 1507 1508 1509 1510 1513 1515 1519 1521 1523 1525 1528 1530 1532 1535 1537 1539 1541 1543 1544 1546 1547 1548 1549 1549 1550 1550 1550 1550 1550 1550 1550 1550 1549 1549 1548 1547 1547 1546 1546 1545 1545 1544 1544 1543 1543 1543
1505 1506 1508 1509 1509 1511 1512 1516 1517 1520 1522 1524 1527 1529 1532 1534 1536 1538 1540 1542 1544 1546 1547 1548 1549 1550 1550 1550 1551 1551 1551 1551 1551 1551 1551 1550 1549 1549 1548 1547 1547 1547 1546 1545 1545 1544 1544 1544 1543
1506 1509 1514 1510 1509 1510 1515 1523 1518 1520 1522 1525 1528 1531 1533 1535 1537 1539 1541 1542 1544 1546 1548 1549 1550 1551 1551 1551 1552 1552 1552 1552 1552 1552 1551 1551 1550 1549 1548 1548 1548 1547 1546 1546 1545 1545 1544 1544 1544
1510 1515 1516 1512 1508 1509 1513 1520 1519 1521 1522 1525 1528 1531 1534 1536 1538 1540 1542 1543 1545 1547 1549 1550 1551 1551 1552 1552 1553 1553 1553 1553 1553 1552 1552 1551 1551 1550 1549 1549 1548 1548 1547 1546 1546 1545 1545 1545 1545
1514 1513 1513 1513 1509 1510 1514 1518 1519 1521 1522 1525 1528 1531 1533 1536 1538 1540 1543 1545 1546 1548 1549 1550 1551 1552 1553 1553 1554 1554 1554 1554 1554 1553 1553 1552 1552 1551 1550 1550 1549 1548 1548 1547 1547 1546 1546 1546 1545
1507 1510 1513 1512 1508 1510 1514 1517 1518 1520 1522 1525 1527 1529 1533 1535 1538 1541 1543 1545 1547 1549 1550 1551 1552 1553 1554 1554 1554 1555 1555 1555 1555 1554 1554 1553 1552 1552 1551 1551 1550 1549 1548 1548 1547 1547 1547 1547 1546
1505 1510 1512 1511 1508 1511 1515 1516 1516 1519 1521 1523 1525 1528 1531 1534 1538 1540 1543 1545 1547 1549 1551 1552 1553 1553 1554 1554 1555 1556 1556 1556 1555 1555 1555 1554 1553 1553 1552 1551 1551 1550 1550 1549 1549 1548 1548 1548 1547
1506 1509 1511 1513 1511 1510 1516 1520 1518 1518 1520 1523 1524 1527 1530 1533 1536 1540 1543 1545 1547 1549 1551 1552 1553 1554 1554 1555 1556 1556 1557 1557 1557 1556 1556 1555 1554 1554 1553 1552 1552 1551 1551 1550 1550 1549 1549 1549 1549
1509 1504 1506 1509 1515 1520 1517 1529 1519 1516 1519 1520 1523 1526 1529 1533 1536 1539 1542 1545 1547 1549 1551 1552 1554 1554 1555 1556 1556 1557 1557 1558 1558 1557 1557 1556 1556 1555 1554 1553 1553 1553 1552 1551 1551 1551 1550 1550 1550
1505 1503 1506 1508 1513 1518 1516 1524 1520 1512 1518 1518 1521 1525 1529 1532 1535 1538 1542 1545 1547 1549 1551 1552 1554 1554 1555 1556 1557 1557 1558 1558 1558 1558 1558 1558 1557 1556 1555 1555 1554 1554 1553 1552 1552 1552 1551 1551 1551
1503 1505 1506 1508 1515 1527 1516 1521 1521 1511 1511 1513 1518 1523 1527 1531 1535 1538 1541 1544 1546 1548 1550 1552 1553 1554 1555 1556 1557 1558 1558 1559 1559 1559 1559 1558 1558 1557 1557 1556 1555 1555 1554 1553 1553 1553 1552 1552 1552
1505 1514 1526 1528 1531 1525 1506 1513 1513 1502 1503 1508 1514 1520 1525 1530 1533 1537 1540 1543 1546 1548 1550 1551 1553 1554 1555 1557 1558 1558 1558 1559 1559 1559 1559 1559 1559 1558 1558 1557 1556 1556 1555 1554 1554 1554 1553 1553 1553
1506 1513 1528 1534 1530 1520 1507 1512 1505 1498 1502 1506 1512 1518 1524 1528 1532 1536 1539 1542 1545 1547 1549 1551 1553 1554 1556 1557 1558 1558 1559 1559 1559 1560 1560 1560 1559 1559 1558 1558 1557 1556 1556 1555 1555 1554 1554 1554 1553
1507 1509 1506 1515 1515 1521 1513 1505 1503 1499 1503 1507 1512 1517 1522 1527 1531 1535 1539 1542 1544 1547 1549 1551 1552 1554 1555 1557 1557 1558 1559 1559 1559 1560 1560 1560 1560 1559 1559 1558 1558 1557 1556 1556 1555 1555 1555 1554 1554
1499 1500 1504 1513 1524 1527 1517 1509 1510 1505 1505 1507 1511 1516 1521 1526 1530 1534 1538 1541 1544 1546 1548 1550 1552 1554 1555 1556 1557 1558 1559 1559 1560 1560 1560 1560 1560 1560 1559 1559 1558 1558 1557 1557 1556 1555 1555 1555 1554
1500 1500 1501 1504 1508 1523 1528 1520 1495 1499 1502 1506 1510 1515 1520 1525 1529 1533 1537 1540 1543 1546 1548 1550 1552 1553 1555 1556 1557 1558 1558 1559 1560 1560 1560 1560 1560 1560 1560 1559 1559 1558 1557 1557 1556 1556 1556 1555 1555
1494 1495 1500 1513 1513 1508 1516 1519 1493 1495 1500 1504 1509 1514 1519 1524 1529 1533 1536 1539 1542 1545 1547 1549 1551 1553 1554 1556 1557 1558 1558 1559 1559 1560 1560 1560 1560 1560 1560 1560 1559 1558 1558 1557 1557 1556 1556 1555 1555